SL-16 DEB, 20628

Orbit data source: Space-Track

SL-16 DEB, 20628 is space debris in LEO originally from a launch on Tue, 22 May 1990 UTC launched from the Tyuratam Missile And Space Complex (TTMTR). Debris objects in space refer to the collection of defunct objects orbiting the Earth. Examples of debris include non-operational satellites, rocket bodies, and fragments generated from explosions, collisions, or faulty payload assembly.

Loading next visibility...
Identifier
20628, 1990-046E
Orbit
LEO
Country
Flag of CISCIS
Related business
Manufacturer
Yuzhnoe
Mission
Spacecraft
Bus & Motor
SEP MOTOR COVER, Unknown motor
Mass
~0 kg wet, ~1 kg dry
Launch date (UTC)
1990-05-22 (36 years ago)
Launch vehicle
Unknown
Launch site
Tyuratam Missile And Space Complex (TTMTR)
Object type
Payload
Rocket body
Debris
Shape & HBR
Unknown
Radar Cross Section
Small (<0.1 m²)

Expand to show TLE details & history
Last TLE update: 17 hours ago

TLE from 17 hours ago
0 SL-16 DEB
1 20628U 90046E   25348.91241127  .00000148  00000-0  17880-3 0  9996
2 20628  70.9740 175.8511 0205366 117.6341 244.5773 13.72426680780196
Epoch: 2025-12-14T21:53Z
TLE epoch observation values (Epoch: 2025-12-14T21:53:52.333Z)
Latitude
-0.00009°
Longitude
123.56449°
Altitude
1,060.703 km
Speed
7.288 km/s
True Right ascension
11h 43m 24s
True Declination
0° 00' 00"
Sunlit
Object was in daylight at epoch
Visualization orbit readout
Latitude
Unknown
Longitude
Unknown
Altitude
Unknown
Speed
Unknown
Apparent Right ascension
Unknown
Apparent Declination
Unknown
Sunlit
N/A
Visualization observer readout
Local Sidereal Time
13:24:40
Azimuth
Unknown
Elevation
Unknown
Doppler factor
Unknown
Orbital elements
Apogee altitude
1,140.133 km
Perigee altitude
837.547 km
Semi-major axis
7,366.977 km
Eccentricity
0.02054
Inclination
70.974°
RAAN
175.8511°
Arg. of periapsis
117.6341°
True anomaly
242.47551°
Mean anomaly
244.5773°
Eccentric anomaly
243.52405°
Mean motion
3.43249 °/min
Orbital period
104.88 mins
BSTAR
0.0001788
Loading maneuver chart data...
Computing Atmospheric mass density...
Loading historical data...
Loading historical data...
Loading historical data...
Loading historical data...
Loading historical data...
Loading historical data...
Loading historical data...
Other satellites on launch #46 in the year 1990 (1990-05-22 UTC)

Documentation

Showing up to 5 results
|